{"data":{"norad_id":62658,"epoch":"2026-09-22T12:50:18.335616Z","epoch_age_seconds":142415,"freshness":"FRESH","line1":"1 62658U 25009BB  26265.53493444  .00006686  00000+0  22120-3 0  9995","line2":"2 62658  97.3839 346.9596 0002190  64.5273 295.6195 15.31668015148342","mean_motion":15.31668015,"eccentricity":0.000219,"inclination_deg":97.3839,"raan_deg":346.9596,"arg_perigee_deg":64.5273,"mean_anomaly_deg":295.6195,"bstar":0.0002212,"rev_number":14834,"period_min":94.015151187968,"perigee_km":469.33541756248,"apogee_km":472.3352674485,"semimajor_km":6848.9723425055,"source":"CELESTRAK","updated_at":"2026-09-23T09:00:21.541793Z"}}